Regional Weather Roundup
Issued by NWS

Home | Current Version | Previous Version | Text Only | Print | Product List | Glossary Off
Versions: 1 2 3 4 5 6 7 8 9 10 11 12 13 14 15 16 17 18 19 20 21 22 23 24 25 26 27 28 29 30 31 32 33 34 35 36 37 38 39 40 41 42 43 44 45 46 47 48 49 50

000
ASUS45 KBOU 240607
RWRCO

WEATHER ROUNDUP FOR COLORADO
NATIONAL WEATHER SERVICE DENVER/BOULDER CO
1200 AM MDT SUN JUL 24 2016

NOTE: "FAIR" INDICATES FEW OR NO CLOUDS BELOW 12000 FEET WITH NO
SIGNIFICANT WEATHER AND/OR OBSTRUCTIONS TO VISIBILITY.

COZ001>005-013-030-031-240700-
...NORTHWEST COLORADO...

CITY           SKY/WX    TMP DP  RH WIND       PRES   REMARKS
CRAIG          FAIR      61  42  49 CALM      30.20R
HAYDEN         NOT AVBL
MEEKER         FAIR      66  46  48 SW12      30.23R
MOUNT WERNER   NOT AVBL
STEAMBOAT SPGS FAIR      66  41  40 S3        30.24F
WALDEN         FAIR      59  37  44 NW7       30.37R
$$

COZ006>008-011-240700-
...WEST CENTRAL VALLEYS...

CITY           SKY/WX    TMP DP  RH WIND       PRES   REMARKS
GRAND JUNCTION FAIR      78  44  29 N7        30.07R
MONTROSE       FAIR      73  43  33 SE13      30.15S
EAGLE          FAIR      64  45  48 NE5       30.27R
RIFLE          FAIR      72  43  35 S9        30.15R
DELTA          FAIR      77  46  33 NE5       30.09S
NUCLA          FAIR      70  43  37 E13       30.19S
$$

COZ017>023-064>068-240700-
...SOUTHWEST COLORADO...

CITY           SKY/WX    TMP DP  RH WIND       PRES   REMARKS
DURANGO        FAIR      63  47  55 CALM      30.22F
CORTEZ         FAIR      68  44  42 NE6       30.16R
PAGOSA SPRINGS FAIR      71  37  28 NW5       30.32R
TELLURIDE      FAIR      60  40  47 SE6       30.46F
WOLF CREEK PAS FAIR      55  32  41 N7        30.71R
$$

COZ009-010-012-014-032>034-037-058>063-240700-
...CENTRAL COLORADO...

CITY           SKY/WX    TMP DP  RH WIND       PRES   REMARKS
ASPEN          FAIR      61  42  49 S9        30.32F
BUENA VISTA    FAIR      57  42  56 N5        30.39R
COPPER MTN     FAIR      59  32  36 W7        30.69S
BERTHOUD PASS  FAIR      48  34  57 NW10G18   30.72R
COTTONWOOD PAS FAIR      63  36  36 SW3       30.54R
GUNNISON       FAIR      59  41  51 N6        30.36R
KREMMLING      FAIR      54  46  76 SW3       30.34R
LEADVILLE      FAIR      50  36  58 N3        30.52R
MONARCH PASS   FAIR      52  36  54 MISG      30.79S
SALIDA         FAIR      63  46  53 CALM      30.43R
SUNLIGHT       FAIR      59  34  38 NE5       30.60S
WILKERSON PASS FAIR      54  36  50 S5        30.67S
$$

COZ069>075-240700-
...SAN LUIS VALLEY/SANGRE DE CRISTO MOUNTAINS...

CITY           SKY/WX    TMP DP  RH WIND       PRES   REMARKS
ALAMOSA        MOCLDY    60  45  57 S12       30.32R
LA VETA PASS   CLOUDY    54  43  66 NE14      30.56R
SAGUACHE       FAIR      64  41  42 N7        30.34S
$$

COZ035-036-038>040-240700-
...NORTHERN COLORADO FRONT RANGE...

CITY           SKY/WX    TMP DP  RH WIND       PRES   REMARKS
DENVER INTL AP MOCLDY    70  52  52 S15       30.15S
DMNS CITY PARK   N/A     74  49  42 S10       30.15R
AURORA         MOCLDY    71  52  50 S12       30.18R
FRONT RANGE AP NOT AVBL
ERIE MUNI ARPT FAIR      75  49  40 SE5       30.14R
BOULDER MUN AP FAIR      68  50  52 N3        30.16R
CENTENNIAL     MOCLDY    71  50  47 S14       30.20R
BROOMFIELD     FAIR      72  50  46 S5        30.18R
LONGMONT       FAIR      72  52  50 N3        30.17R
$$

COZ041-046-047-076>085-087-088-240700-
...PIKES PEAK/PALMER DIVIDE AND SOUTHERN FOOTHILLS...

CITY           SKY/WX    TMP DP  RH WIND       PRES   REMARKS
COLO. SPRINGS  MOCLDY    68  53  58 N8        30.27S
A. F. ACADEMY  CLOUDY    67  49  51 S6        30.27F
SCHRIEVER AFB  NOT AVBL
ELLICOTT       FAIR     N/A N/A N/A E10       30.23S
FALCON         LGT RAIN  65  51  61 N8        30.33R
FORT CARSON    MOCLDY    70  50  49 VRB7      30.23R
LIMON          MOCLDY    70  56  61 NE6       30.17F
MONUMENT HILL  FAIR      63  50  63 S9        30.31S
TRINIDAD       NOT AVBL
$$

COZ042>045-048>051-090-091-240700-
...NORTHEAST COLORADO...

CITY           SKY/WX    TMP DP  RH WIND       PRES   REMARKS
GREELEY ARPT   FAIR      66  55  68 CALM      30.15S
AKRON          FAIR      73  54  51 SW9       30.12R
BURLINGTON     FAIR      75  54  47 NW10      30.11R
WRAY           NOT AVBL
STERLING       MOCLDY    75  54  46 SE8       30.07S
HOLYOKE        FAIR      73  59  60 NW8       30.10F
FORT MORGAN    FAIR      67  52  58 NE7       30.13F
$$

COZ086-089-092>099-240700-
...SOUTHEAST COLORADO...

CITY           SKY/WX    TMP DP  RH WIND       PRES   REMARKS
PUEBLO         FAIR      78  52  40 E7        30.15R
LA JUNTA       FAIR      72  61  68 NE18      30.07R
LAMAR          LGT RAIN  70  64  81 N10       30.06R
SPRINGFIELD      N/A     74  57  55 N7        30.08R
$$



USA.gov is the U.S. government's official web portal to all federal, state and local government web resources and services.